CW4438 Weather Reports


Display with metric or nautical units.
time (UTC)temp
F
wind
direction
speed
MPH
gust
MPH
rain 1hr
in
rain 24hr
in
rain mn
in
humidity
%
barometer
mb
20260831055506 80 120 1.0 5.0 0.00 0.00 0.00 54 1016.2
20260831055008 81 109 1.0 5.0 0.00 0.00 0.00 54 1016.2
20260831054507 81 90 1.0 5.0 0.00 0.00 0.00 54 1016.2
20260831054005 81 107 1.0 4.0 0.00 0.00 0.00 54 1016.2
20260831053507 81 133 1.0 4.0 0.00 0.00 0.00 54 1016.2
20260831053007 81 140 1.0 3.0 0.00 0.00 0.00 53 1016.1
20260831052503 81 105 1.0 7.0 0.00 0.00 0.00 53 1016.1
20260831052005 81 157 1.0 7.0 0.00 0.00 0.00 53 1016.1
20260831051503 81 76 1.0 5.0 0.00 0.00 0.00 53 1016.0
20260831051008 81 134 1.0 5.0 0.00 0.00 0.00 53 1016.0
20260831050505 81 57 1.0 5.0 0.00 0.00 0.00 53 1016.0
20260831050003 81 85 1.0 5.0 0.00 0.00 0.00 53 1015.9
20260831044506 82 104 1.0 3.0 0.00 0.00 0.00 54 1015.8
20260831044006 82 92 1.0 6.0 0.00 0.00 0.00 54 1015.8
20260831043512 82 131 2.0 6.0 0.00 0.00 0.00 54 1015.8
20260831043006 82 85 2.0 7.0 0.00 0.00 0.00 54 1015.8
20260831042504 82 95 1.0 7.0 0.00 0.00 0.00 54 1015.7
20260831042005 82 132 1.0 5.0 0.00 0.00 0.00 53 1015.8
20260831041504 83 146 1.0 5.0 0.00 0.00 0.00 53 1015.8
20260831041005 83 77 1.0 5.0 0.00 0.00 0.00 53 1015.7
20260831040502 83 132 1.0 5.0 0.00 0.00 0.00 53 1015.7
20260831040002 83 139 1.0 3.0 0.00 0.00 0.00 52 1015.6
20260831035004 83 94 1.0 5.0 0.00 0.00 0.00 52 1015.6
20260831034504 84 194 1.0 6.0 0.00 0.00 0.00 52 1015.5
20260831033510 84 118 2.0 6.0 0.00 0.00 0.00 51 1015.4
20260831033007 84 19 2.0 6.0 0.00 0.00 0.00 51 1015.4
20260831032508 85 19 1.0 6.0 0.00 0.00 0.00 50 1015.3
20260831032007 85 227 1.0 5.0 0.00 0.00 0.00 50 1015.4
20260831031507 85 163 2.0 7.0 0.00 0.00 0.00 50 1015.3
20260831031006 85 220 2.0 7.0 0.00 0.00 0.00 50 1015.4
20260831030505 85 340 2.0 6.0 0.00 0.00 0.00 49 1015.3
20260831030005 85 85 2.0 7.0 0.00 0.00 0.00 49 1015.3
20260831025506 86 117 2.0 8.0 0.00 0.00 0.00 49 1015.2
20260831025009 86 199 2.0 8.0 0.00 0.00 0.00 49 1015.3
20260831024508 86 197 2.0 4.0 0.00 0.00 0.00 48 1015.2
20260831024006 86 238 2.0 7.0 0.00 0.00 0.00 48 1015.1
20260831023511 86 197 2.0 7.0 0.00 0.00 0.00 47 1015.1
20260831023009 87 175 2.0 6.0 0.00 0.00 0.00 47 1015.1
20260831022506 87 205 3.0 7.0 0.00 0.00 0.00 47 1015.0
20260831022005 87 167 2.0 9.0 0.00 0.00 0.00 46 1015.0
20260831021507 87 261 2.0 9.0 0.00 0.00 0.00 46 1014.9
20260831021002 87 131 2.0 6.0 0.00 0.00 0.00 45 1014.9
20260831020504 87 188 2.0 8.0 0.00 0.00 0.00 45 1014.8
20260831015503 87 48 2.0 6.0 0.00 0.00 0.00 44 1014.6
20260831014504 88 80 0.0 5.0 0.00 0.00 0.00 43 1014.5
20260831014005 88 165 0.0 2.0 0.00 0.00 0.00 42 1014.5
20260831013508 89 114 0.0 2.0 0.00 0.00 0.00 42 1014.4
20260831013006 89 103 0.0 2.0 0.00 0.00 0.00 41 1014.3
20260831012506 89 150 0.0 2.0 0.00 0.00 0.00 40 1014.3
20260831012008 89 138 1.0 2.0 0.00 0.00 0.00 40 1014.3
20260831011507 90 138 1.0 3.0 0.00 0.00 0.00 39 1014.2
20260831011007 90 108 1.0 3.0 0.00 0.00 0.00 39 1014.2
20260831010508 91 112 1.0 3.0 0.00 0.00 0.00 38 1014.2
20260831005503 91 123 0.0 5.0 0.00 0.00 0.00 37 1014.2
20260831005006 92 176 0.0 1.0 0.00 0.00 0.00 36 1014.2
20260831004503 93 177 0.0 2.0 0.00 0.00 0.00 35 1014.2
20260831003505 93 213 0.0 2.0 0.00 0.00 0.00 34 1014.3
20260831003008 93 213 1.0 3.0 0.00 0.00 0.00 34 1014.3
20260831002509 94 217 2.0 5.0 0.00 0.00 0.00 33 1014.2
20260831001507 94 192 2.0 5.0 0.00 0.00 0.00 33 1014.2
20260831001004 94 115 2.0 5.0 0.00 0.00 0.00 32 1014.2
20260831000504 94 148 2.0 5.0 0.00 0.00 0.00 33 1014.2
20260830235504 95 211 1.0 6.0 0.00 0.00 0.00 33 1014.3
20260830235004 95 193 2.0 6.0 0.00 0.00 0.00 32 1014.2
20260830234502 96 258 2.0 6.0 0.00 0.00 0.00 32 1014.3
20260830234000 96 239 2.0 5.0 0.00 0.00 0.00 32 1014.3
20260830232506 96 229 2.0 7.0 0.00 0.00 0.00 31 1014.3
20260830232003 97 232 2.0 6.0 0.00 0.00 0.00 31 1014.3
20260830231505 97 282 2.0 6.0 0.00 0.00 0.00 31 1014.2
20260830231002 97 213 2.0 6.0 0.00 0.00 0.00 31 1014.3
20260830230006 98 155 2.0 5.0 0.00 0.00 0.00 30 1014.3
20260830225514 98 246 2.0 4.0 0.00 0.00 0.00 30 1014.3
20260830223503 100 227 2.0 6.0 0.00 0.00 0.00 29 1014.2
20260830202001 102 132 3.0 7.0 0.00 0.00 0.00 28 1015.0
20260830201001 101 169 3.0 8.0 0.00 0.00 0.00 29 1015.1
20260830200501 101 231 3.0 12.0 0.00 0.00 0.00 29 1015.2
20260830195501 101 232 3.0 8.0 0.00 0.00 0.00 29 1015.3
20260830195001 101 252 3.0 8.0 0.00 0.00 0.00 30 1015.3
20260830194501 100 116 3.0 8.0 0.00 0.00 0.00 33 1015.3
20260830194001 99 219 3.0 7.0 0.00 0.00 0.00 32 1015.3
20260830193501 99 317 2.0 7.0 0.00 0.00 0.00 31 1015.4
20260830193001 100 5 2.0 7.0 0.00 0.00 0.00 31 1015.5
20260830191502 100 182 2.0 6.0 0.00 0.00 0.00 31 1015.6
20260830191003 101 28 3.0 9.0 0.00 0.00 0.00 30 1015.7
20260830190003 101 220 2.0 6.0 0.00 0.00 0.00 30 1015.8
20260830185502 101 215 2.0 6.0 0.00 0.00 0.00 32 1015.8
20260830185003 100 79 3.0 8.0 0.00 0.00 0.00 32 1015.9
20260830184502 100 121 3.0 8.0 0.00 0.00 0.00 32 1016.0
20260830184001 99 252 3.0 8.0 0.00 0.00 0.00 32 1016.1
20260830183503 99 301 3.0 10.0 0.00 0.00 0.00 32 1016.2
20260830182002 99 246 3.0 6.0 0.00 0.00 0.00 33 1016.3
20260830180002 99 251 3.0 9.0 0.00 0.00 0.00 32 1016.6
20260830175502 99 198 3.0 9.0 0.00 0.00 0.00 32 1016.7
20260830175001 99 145 3.0 9.0 0.00 0.00 0.00 32 1016.7
20260830174501 99 200 3.0 8.0 0.00 0.00 0.00 34 1016.9
20260830174001 99 217 4.0 9.0 0.00 0.00 0.00 33 1016.9
20260830173501 99 250 3.0 9.0 0.00 0.00 0.00 33 1016.9
20260830173001 99 186 3.0 7.0 0.00 0.00 0.00 33 1017.0
20260830172001 98 151 3.0 7.0 0.00 0.00 0.00 33 1017.1
20260830171501 97 193 3.0 7.0 0.00 0.00 0.00 34 1017.2
20260830171001 97 161 3.0 7.0 0.00 0.00 0.00 34 1017.2
20260830170002 96 117 3.0 7.0 0.00 0.00 0.00 34 1017.4
20260830165503 96 157 3.0 9.0 0.00 0.00 0.00 36 1017.4
20260830165002 96 177 3.0 9.0 0.00 0.00 0.00 35 1017.5
20260830164503 96 245 3.0 9.0 0.00 0.00 0.00 35 1017.5
20260830164002 96 284 3.0 9.0 0.00 0.00 0.00 36 1017.5
20260830163502 95 290 3.0 7.0 0.00 0.00 0.00 36 1017.6
20260830163003 95 156 3.0 7.0 0.00 0.00 0.00 36 1017.7
20260830162502 95 222 3.0 7.0 0.00 0.00 0.00 37 1017.7
20260830162003 94 198 3.0 6.0 0.00 0.00 0.00 39 1017.8
20260830161503 94 230 3.0 7.0 0.00 0.00 0.00 39 1017.7
20260830161002 93 200 3.0 7.0 0.00 0.00 0.00 38 1017.8
20260830160502 92 155 4.0 8.0 0.00 0.00 0.00 39 1017.8
20260830160002 92 307 4.0 8.0 0.00 0.00 0.00 39 1017.8
20260830155503 92 202 4.0 8.0 0.00 0.00 0.00 39 1017.8
20260830154503 91 307 3.0 12.0 0.00 0.00 0.00 41 1017.8
20260830154003 91 76 3.0 10.0 0.00 0.00 0.00 41 1017.7
20260830153502 90 167 3.0 10.0 0.00 0.00 0.00 44 1017.7
20260830153002 90 195 3.0 7.0 0.00 0.00 0.00 44 1017.8
20260830152503 89 179 4.0 11.0 0.00 0.00 0.00 43 1017.7
20260830152002 89 206 4.0 11.0 0.00 0.00 0.00 45 1017.8
20260830151503 89 217 3.0 10.0 0.00 0.00 0.00 45 1017.7
20260830151002 88 182 3.0 10.0 0.00 0.00 0.00 47 1017.7
20260830150502 88 188 3.0 8.0 0.00 0.00 0.00 47 1017.6
20260830150003 87 134 3.0 8.0 0.00 0.00 0.00 48 1017.7
20260830145502 86 289 3.0 8.0 0.00 0.00 0.00 50 1017.6
20260830145003 86 250 3.0 8.0 0.00 0.00 0.00 51 1017.6
20260830144503 85 223 3.0 8.0 0.00 0.00 0.00 51 1017.6
20260830143956 84 218 3.0 8.0 0.00 0.00 0.00 53 1017.6
20260830143442 84 191 3.0 7.0 0.00 0.00 0.00 54 1017.6
20260830142936 83 234 3.0 5.0 0.00 0.00 0.00 54 1017.6
20260830142434 83 289 2.0 5.0 0.00 0.00 0.00 55 1017.6
20260830141933 83 164 2.0 5.0 0.00 0.00 0.00 55 1017.6
20260830140933 82 123 2.0 6.0 0.00 0.00 0.00 57 1017.7
20260830140433 81 223 2.0 8.0 0.00 0.00 0.00 58 1017.8
20260830135933 80 149 2.0 8.0 0.00 0.00 0.00 58 1017.7
20260830135434 79 80 2.0 11.0 0.00 0.00 0.00 60 1017.6
20260830134933 78 86 2.0 11.0 0.00 0.00 0.00 60 1017.6
20260830133933 77 51 2.0 4.0 0.00 0.00 0.00 64 1017.6
20260830133432 76 210 1.0 4.0 0.00 0.00 0.00 65 1017.6
20260830132931 76 103 1.0 3.0 0.00 0.00 0.00 65 1017.5
20260830132429 75 118 1.0 2.0 0.00 0.00 0.00 66 1017.5
20260830131924 74 13 1.0 4.0 0.00 0.00 0.00 68 1017.6
20260830131423 73 82 1.0 4.0 0.00 0.00 0.00 69 1017.7
20260830130915 73 135 0.0 3.0 0.00 0.00 0.00 71 1017.7
20260830130415 72 65 0.0 2.0 0.00 0.00 0.00 72 1017.6
20260830125916 71 112 0.0 2.0 0.00 0.00 0.00 74 1017.6
20260830124912 70 123 0.0 2.0 0.00 0.00 0.00 74 1017.5
20260830124412 70 93 0.0 2.0 0.00 0.00 0.00 75 1017.5
20260830123911 69 116 0.0 1.0 0.00 0.00 0.00 74 1017.5
20260830123410 69 172 0.0 1.0 0.00 0.00 0.00 75 1017.5
20260830122907 69 172 0.0 2.0 0.00 0.00 0.00 75 1017.4
20260830122407 69 102 0.0 2.0 0.00 0.00 0.00 75 1017.3
20260830121907 69 91 1.0 2.0 0.00 0.00 0.00 75 1017.2
20260830121408 69 101 1.0 3.0 0.00 0.00 0.00 75 1017.1
20260830120908 69 96 1.0 3.0 0.00 0.00 0.00 75 1017.0
20260830120406 69 79 1.0 3.0 0.00 0.00 0.00 75 1017.0
20260830115403 69 92 0.0 2.0 0.00 0.00 0.00 74 1017.1
20260830114903 69 97 0.0 2.0 0.00 0.00 0.00 74 1017.1
20260830113403 70 97 0.0 1.0 0.00 0.00 0.00 72 1017.0
20260830112903 70 97 0.0 1.0 0.00 0.00 0.00 72 1016.9
20260830112406 70 97 0.0 1.0 0.00 0.00 0.00 71 1016.9
20260830111904 70 97 0.0 1.0 0.00 0.00 0.00 70 1016.8
20260830110907 70 97 0.0 2.0 0.00 0.00 0.00 71 1016.8
20260830110404 70 103 0.0 2.0 0.00 0.00 0.00 70 1016.8
20260830105904 71 99 0.0 2.0 0.00 0.00 0.00 70 1016.8
20260830105408 71 98 0.0 2.0 0.00 0.00 0.00 70 1016.8
20260830104904 71 98 0.0 1.0 0.00 0.00 0.00 70 1016.7
20260830104405 71 103 0.0 2.0 0.00 0.00 0.00 69 1016.7
20260830103404 71 91 1.0 2.0 0.00 0.00 0.00 69 1016.6
20260830102904 71 91 1.0 2.0 0.00 0.00 0.00 68 1016.7
20260830102405 72 93 1.0 3.0 0.00 0.00 0.00 68 1016.6
20260830101904 72 143 1.0 3.0 0.00 0.00 0.00 68 1016.6
20260830101403 72 81 1.0 2.0 0.00 0.00 0.00 68 1016.6
20260830100907 72 105 0.0 2.0 0.00 0.00 0.00 67 1016.6
20260830100402 72 120 0.0 2.0 0.00 0.00 0.00 67 1016.7
20260830095403 72 226 0.0 2.0 0.00 0.00 0.00 67 1016.7
20260830094903 72 113 0.0 2.0 0.00 0.00 0.00 66 1016.7
20260830094403 73 110 0.0 2.0 0.00 0.00 0.00 66 1016.7
20260830093903 73 89 0.0 2.0 0.00 0.00 0.00 66 1016.7
20260830093403 73 93 0.0 2.0 0.00 0.00 0.00 65 1016.7
20260830091904 73 120 0.0 1.0 0.00 0.00 0.00 64 1016.7
20260830090903 74 130 0.0 2.0 0.00 0.00 0.00 63 1016.7
20260830090403 74 136 0.0 3.0 0.00 0.00 0.00 63 1016.7
20260830085903 74 113 1.0 3.0 0.00 0.00 0.00 63 1016.7
20260830085403 74 165 1.0 3.0 0.00 0.00 0.00 63 1016.6
20260830084902 74 159 1.0 3.0 0.00 0.00 0.00 63 1016.5
20260830084403 74 142 1.0 3.0 0.00 0.00 0.00 63 1016.5
20260830083903 74 93 2.0 6.0 0.00 0.00 0.00 63 1016.5
20260830083403 74 183 2.0 6.0 0.00 0.00 0.00 63 1016.3
20260830082903 74 149 1.0 5.0 0.00 0.00 0.00 63 1016.3
20260830082403 74 63 1.0 5.0 0.00 0.00 0.00 62 1016.3
20260830081403 74 128 1.0 4.0 0.00 0.00 0.00 62 1016.3
20260830080903 74 146 2.0 5.0 0.00 0.00 0.00 62 1016.3
20260830075404 74 136 1.0 3.0 0.00 0.00 0.00 62 1016.5
20260830074904 74 30 1.0 3.0 0.00 0.00 0.00 62 1016.5
20260830074411 74 32 1.0 5.0 0.00 0.00 0.00 62 1016.6
20260830073910 74 20 1.0 5.0 0.00 0.00 0.00 62 1016.6
20260830073407 74 28 0.0 2.0 0.00 0.00 0.00 61 1016.6
20260830072405 74 30 1.0 3.0 0.00 0.00 0.00 61 1016.5
20260830071904 74 19 1.0 4.0 0.00 0.00 0.00 61 1016.5
20260830071404 74 33 1.0 4.0 0.00 0.00 0.00 61 1016.6
20260830070404 74 58 1.0 3.0 0.00 0.00 0.00 61 1016.7
20260830065403 75 36 0.0 3.0 0.00 0.00 0.00 60 1016.9
20260830064903 75 26 0.0 2.0 0.00 0.00 0.00 60 1016.9
20260830064403 75 29 0.0 2.0 0.00 0.00 0.00 59 1016.9
20260830063902 75 30 0.0 2.0 0.00 0.00 0.00 59 1016.8
20260830063403 75 30 0.0 2.0 0.00 0.00 0.00 59 1016.9
20260830062902 75 30 0.0 3.0 0.00 0.00 0.00 59 1016.9
20260830061903 76 29 1.0 3.0 0.00 0.00 0.00 59 1017.0
20260830061404 76 24 1.0 3.0 0.00 0.00 0.00 59 1017.0
20260830060901 76 24 1.0 4.0 0.00 0.00 0.00 59 1017.0
20260830060401 76 32 1.0 4.0 0.00 0.00 0.00 59 1016.9
20260830055901 76 30 1.0 3.0 0.00 0.00 0.00 59 1017.0